Regional Weather Roundup
Issued by NWS Bismarck, ND

Home | Current Version | Previous Version | Text Only | Print | Product List | Glossary On
Versions: 1 2 3 4 5 6 7 8 9 10 11 12 13 14 15 16 17 18 19 20 21 22 23 24 25 26 27 28 29 30 31 32 33 34 35 36 37 38 39 40 41 42 43 44 45 46 47 48 49 50
000
ASUS43 KBIS 230720
RWRBIS

NWR BROADCAST TEXT
NATIONAL WEATHER SERVICE BISMARCK ND
200 AM CDT WED APR 23 2014

NOTE: "FAIR" INDICATES FEW OR NO CLOUDS BELOW 12,000 FEET WITH NO
SIGNIFICANT WEATHER AND/OR OBSTRUCTIONS TO VISIBILITY.


CITY           SKY/WX    TMP DP  RH WIND       PRES   REMARKS
WILLISTON      CLOUDY    54  32  43 E23G38    29.56F
MINOT          PTCLDY    47  33  58 E16G25    29.73F
MINOT AFB      PTCLDY    46  34  63 SE22      29.73F
BISMARCK       CLOUDY    51  42  71 SE22G31   29.70F
DICKINSON      LGT RAIN  53  33  46 SE22G32   29.55F
GARRISON         N/A     51  34  52 E24G35    29.68F
HETTINGER ARPT CLOUDY    52  32  46 E17       29.54F
JAMESTOWN      CLOUDY    49  35  58 SE22      29.84F
CARRINGTON     FAIR      46  36  66 SE22G31   29.83F
CROSBY         FAIR      48  34  57 E22       29.64F
HARVEY         FAIR      45  34  65 E23       29.79F
HAZEN          CLOUDY    52  32  46 SE18G29   29.65S
LINTON         PTSUNNY   54  37  54 SE23G38   29.69F
MANDAN         CLOUDY    52  37  58 SE26G35   29.68F
OAKES          PTSUNNY   50  37  62 SE20G26   29.88R
RUGBY          FAIR      43  32  65 E21       29.82F
STANLEY        PTSUNNY   46  34  61 E17G23    29.67F
TIOGA          FAIR      48  32  53 E23G36    29.66F
WATFORD CITY   FAIR      54  32  43 SE21G30   29.57S
$$

CITY           SKY/WX    TMP DP  RH WIND       PRES   REMARKS
GRAND FORKS    PTCLDY    46  27  47 SE14      29.96F
GRAND FORKS AF PTCLDY    42  29  60 E9        29.95F
DEVILS LAKE    CLEAR     43  30  61 SE15G22   29.88F
FARGO          MOCLDY    48  29  47 SE13      29.95S
CANDO          FAIR      41  32  70 SE17      29.89S
CAVALIER       FAIR      39  32  75 E9        29.97F
GRAFTON        FAIR      39  30  70 SE10G16   29.97S
GWINNER        SUNNY     52  36  54 SE20      29.91F
LANGDON        FAIR      39  28  65 SE15      29.93F
ROLLA          FAIR      39  32  75 SE13      29.90S
WALHALLA       FAIR      39  34  81 SE7       29.97F
$$

CITY           SKY/WX    TMP DP  RH WIND       PRES   REMARKS
ABERDEEN       CLOUDY    49  40  71 SE17G24   29.84S
MOBRIDGE       CLOUDY    56  33  42 SE28G45   29.63F
BUFFALO          N/A     52  36  54 E16       29.40F
RAPID CITY     CLOUDY    57  45  64 S12       29.53F
GLASGOW        PTCLDY    56  32  40 E29G36    29.38F
SIDNEY         CLOUDY    55  30  38 SE14G25   29.52F
WOLF POINT     MOCLDY    56  31  38 E16       29.45F
GLENDIVE       CLOUDY    54  30  40 E18       29.46F
MILES CITY     CLOUDY    56  37  49 NE9       29.35F
BAKER          CLOUDY    53  33  46 E15       29.45F
$$

CITY           SKY/WX    TMP DP  RH WIND       PRES   REMARKS
BILLINGS       CLOUDY    54  42  64 NW35G43   29.38R
GREAT FALLS    LGT RAIN  42  42 100 SW6       29.57R
REGINA         PTCLDY    48  34  57 E24G37    29.65F
ESTEVAN        CLOUDY    48  36  61 SE17G23   29.69F
$$




USA.gov is the U.S. government's official web portal to all federal, state and local government web resources and services.